Weather History for KLIC - March, 2013

Change the Weather History Date:

Thursday, March 7, 2013

  Actual Average Record
Temperature  
Mean Temperature 44 °F -  
Max Temperature 64 °F - 70 °F (2006)
Min Temperature 24 °F - 8 °F (1998)
Degree Days  
Heating Degree Days 21    
Month to date heating degree days 182  
Cooling Degree Days 0    
Month to date cooling degree days 0  
Moisture  
Dew Point 21 °F    
Average Humidity 50    
Maximum Humidity 85    
Minimum Humidity 14    
Precipitation  
Precipitation 0.00 in - 0.15 in (2014)
Month to date precipitation 0.00  
Year to date precipitation 0.86  
Sea Level Pressure  
Sea Level Pressure 29.89 in    
Wind  
Wind Speed 7 mph (East)    
Max Wind Speed 13 mph    
Max Gust Speed 15 mph    
Visibility 10 miles    
Events      
T = Trace of Precipitation, MM = Missing Value Source: NWS Daily Summary

Daily Weather History Graph

Daily Weather History Graph

Search for Another Location

Airport or City:

Trip Planner

Search our weather history database for the weather conditions in past years. The results will help you decide how hot, cold, wet, or windy it might be!

Date:

Astronomy

Mar. 07, 2013 Rise Set
Actual Time 6:17 AM MST 5:53 PM MST
Civil Twilight 5:51 AM MST 6:20 PM MST
Nautical Twilight 5:20 AM MST 6:51 PM MST
Astronomical Twilight 4:49 AM MST 7:22 PM MST
Moon 3:18 AM MST (3/7) 1:45 PM MST (3/7)
Length of Visible Light 12h 29m
Length of Day
11h 35m
Waning Crescent, 19% of the Moon is Illuminated
Mar 7
Waning Crescent
Mar 11
New
Mar 19
First Quarter
Mar 27
Full
Apr 2
Last Quarter

Hourly Weather History & Observations

Time (MST) Temp. Windchill Dew Point Humidity Pressure Visibility Wind Dir Wind Speed Gust Speed Precip Events Conditions
12:55 AM 25.0 °F 19.3 °F 21.9 °F 88% 29.86 in 10.0 mi North 4.6 mph - N/A   Clear
1:55 AM 25.0 °F 17.1 °F 21.9 °F 88% 29.84 in 10.0 mi North 6.9 mph - N/A   Clear
2:55 AM 28.0 °F 19.3 °F 23.0 °F 81% 29.82 in 10.0 mi NNW 9.2 mph - N/A   Clear
3:55 AM 30.0 °F 24.1 °F 23.0 °F 75% 29.82 in 10.0 mi North 5.8 mph - N/A   Clear
4:55 AM 28.9 °F - 21.9 °F 75% 29.86 in 10.0 mi Calm Calm - N/A   Clear
5:55 AM 24.1 °F 16.0 °F 19.0 °F 81% 29.92 in 10.0 mi North 6.9 mph - N/A   Clear
6:55 AM 28.0 °F 20.0 °F 21.9 °F 78% 29.96 in 10.0 mi NNW 8.1 mph - N/A   Clear
7:55 AM 37.9 °F 35.5 °F 26.1 °F 62% 29.96 in 10.0 mi NW 3.5 mph - N/A   Clear
8:55 AM 52.0 °F - 26.1 °F 37% 29.94 in 10.0 mi Calm Calm - N/A   Clear
9:55 AM 55.9 °F - 17.1 °F 22% 29.93 in 10.0 mi East 15.0 mph - N/A   Clear
10:55 AM 59.0 °F - 17.1 °F 20% 29.94 in - North - - N/A   Clear
11:55 AM 61.0 °F - 15.1 °F 17% 29.92 in 10.0 mi SE 9.2 mph 17.3 mph N/A   Clear
12:55 PM 62.1 °F - 12.9 °F 15% 29.89 in 10.0 mi South 8.1 mph - N/A   Clear
1:55 PM 63.0 °F - 12.9 °F 14% 29.87 in 10.0 mi SE 8.1 mph - N/A   Clear
2:55 PM 63.0 °F - 12.9 °F 14% 29.85 in 10.0 mi South 10.4 mph - N/A   Clear
3:55 PM 62.1 °F - 15.1 °F 16% 29.84 in 10.0 mi SSE 11.5 mph - N/A   Clear
4:55 PM 57.9 °F - 18.0 °F 21% 29.85 in 10.0 mi SE 6.9 mph - N/A   Clear
5:55 PM 46.9 °F - 23.0 °F 39% 29.91 in 10.0 mi East 6.9 mph - N/A   Clear
6:55 PM 46.0 °F 39.0 °F 26.1 °F 46% 29.92 in 10.0 mi East 17.3 mph 21.9 mph N/A   Clear
7:55 PM 41.0 °F 33.9 °F 28.0 °F 60% 29.91 in 10.0 mi SE 12.7 mph - N/A   Clear
9:55 PM 33.1 °F 30.0 °F 26.1 °F 75% 29.90 in 10.0 mi South 3.5 mph - N/A   Clear
10:55 PM 28.9 °F 25.2 °F 25.0 °F 85% 29.90 in 10.0 mi NW 3.5 mph - N/A   Clear
11:55 PM 24.1 °F - 21.9 °F 91% 29.90 in 10.0 mi Calm Calm - N/A   Clear